Year,Month,Day,Hour,Minute,Value (Times are PST for temperature in C)
2013,08,21,00,00,14.80
2013,08,21,00,01,14.80
2013,08,21,00,02,14.70
2013,08,21,00,03,14.70
2013,08,21,00,04,14.70
2013,08,21,00,05,14.70
2013,08,21,00,06,14.60
2013,08,21,00,07,14.60
2013,08,21,00,08,14.60
2013,08,21,00,09,14.60
2013,08,21,00,10,14.60
2013,08,21,00,11,14.60
2013,08,21,00,12,14.60
2013,08,21,00,13,14.60
2013,08,21,00,14,14.60
2013,08,21,00,15,14.60
2013,08,21,00,16,14.50
2013,08,21,00,17,14.50
2013,08,21,00,18,14.50
2013,08,21,00,19,14.50
2013,08,21,00,20,14.50
2013,08,21,00,21,14.40
2013,08,21,00,22,14.40
2013,08,21,00,23,14.40
2013,08,21,00,24,14.40
2013,08,21,00,25,14.40
2013,08,21,00,26,14.40
2013,08,21,00,27,14.30
2013,08,21,00,28,14.30
2013,08,21,00,29,14.30
2013,08,21,00,30,14.30
2013,08,21,00,31,14.30
2013,08,21,00,32,14.30
2013,08,21,00,33,14.30
2013,08,21,00,34,14.30
2013,08,21,00,35,14.30
2013,08,21,00,36,14.30
2013,08,21,00,37,14.30
2013,08,21,00,38,14.30
2013,08,21,00,39,14.30
2013,08,21,00,40,14.30
2013,08,21,00,41,14.30
2013,08,21,00,42,14.20
2013,08,21,00,43,14.30
2013,08,21,00,44,14.30
2013,08,21,00,45,14.30
2013,08,21,00,46,14.20
2013,08,21,00,47,14.20
2013,08,21,00,48,14.20
2013,08,21,00,49,14.20
2013,08,21,00,50,14.20
2013,08,21,00,51,14.20
2013,08,21,00,52,14.20
2013,08,21,00,53,14.20
2013,08,21,00,54,14.10
2013,08,21,00,55,14.10
2013,08,21,00,56,14.10
2013,08,21,00,57,14.10
2013,08,21,00,58,14.10
2013,08,21,00,59,14.10
2013,08,21,01,00,14.10
2013,08,21,01,01,14.10
2013,08,21,01,02,14.00
2013,08,21,01,03,14.00
2013,08,21,01,04,14.00
2013,08,21,01,05,14.00
2013,08,21,01,06,13.90
2013,08,21,01,07,13.90
2013,08,21,01,08,13.90
2013,08,21,01,09,13.90
2013,08,21,01,10,13.90
2013,08,21,01,11,13.90
2013,08,21,01,12,13.90
2013,08,21,01,13,13.80
2013,08,21,01,14,13.80
2013,08,21,01,15,13.80
2013,08,21,01,16,13.80
2013,08,21,01,17,13.80
2013,08,21,01,18,13.80
2013,08,21,01,19,13.80
2013,08,21,01,20,13.80
2013,08,21,01,21,13.70
2013,08,21,01,22,13.70
2013,08,21,01,23,13.70
2013,08,21,01,24,13.70
2013,08,21,01,25,13.70
2013,08,21,01,26,13.70
2013,08,21,01,27,13.70
2013,08,21,01,28,13.70
2013,08,21,01,29,13.70
2013,08,21,01,30,13.70
2013,08,21,01,31,13.70
2013,08,21,01,32,13.70
2013,08,21,01,33,13.60
2013,08,21,01,34,13.60
2013,08,21,01,35,13.60
2013,08,21,01,36,13.60
2013,08,21,01,37,13.60
2013,08,21,01,38,13.60
2013,08,21,01,39,13.60
2013,08,21,01,40,13.60
2013,08,21,01,41,13.50
2013,08,21,01,42,13.50
2013,08,21,01,43,13.50
2013,08,21,01,44,13.50
2013,08,21,01,45,13.50
2013,08,21,01,46,13.50
2013,08,21,01,47,13.50
2013,08,21,01,48,13.50
2013,08,21,01,49,13.50
2013,08,21,01,50,13.50
2013,08,21,01,51,13.40
2013,08,21,01,52,13.40
2013,08,21,01,53,13.40
2013,08,21,01,54,13.40
2013,08,21,01,55,13.40
2013,08,21,01,56,13.40
2013,08,21,01,57,13.40
2013,08,21,01,58,13.30
2013,08,21,01,59,13.30
2013,08,21,02,00,13.30
2013,08,21,02,01,13.30
2013,08,21,02,02,13.30
2013,08,21,02,03,13.30
2013,08,21,02,04,13.30
2013,08,21,02,05,13.30
2013,08,21,02,06,13.30
2013,08,21,02,07,13.30
2013,08,21,02,08,13.30
2013,08,21,02,09,13.30
2013,08,21,02,10,13.20
2013,08,21,02,11,13.20
2013,08,21,02,12,13.20
2013,08,21,02,13,13.20
2013,08,21,02,14,13.20
2013,08,21,02,15,13.20
2013,08,21,02,16,13.20
2013,08,21,02,17,13.20
2013,08,21,02,18,13.20
2013,08,21,02,19,13.10
2013,08,21,02,20,13.10
2013,08,21,02,21,13.10
2013,08,21,02,22,13.10
2013,08,21,02,23,13.10
2013,08,21,02,24,13.10
2013,08,21,02,25,13.10
2013,08,21,02,26,13.10
2013,08,21,02,27,13.10
2013,08,21,02,28,13.10
2013,08,21,02,29,13.10
2013,08,21,02,30,13.10
2013,08,21,02,31,13.10
2013,08,21,02,32,13.10
2013,08,21,02,33,13.10
2013,08,21,02,34,13.10
2013,08,21,02,35,13.00
2013,08,21,02,36,13.00
2013,08,21,02,37,13.00
2013,08,21,02,38,13.00
2013,08,21,02,39,13.00
2013,08,21,02,40,13.00
2013,08,21,02,41,12.90
2013,08,21,02,42,12.90
2013,08,21,02,43,12.90
2013,08,21,02,44,12.90
2013,08,21,02,45,12.90
2013,08,21,02,46,12.90
2013,08,21,02,47,12.80
2013,08,21,02,48,12.80
2013,08,21,02,49,12.80
2013,08,21,02,50,12.80
2013,08,21,02,51,12.80
2013,08,21,02,52,12.80
2013,08,21,02,53,12.80
2013,08,21,02,54,12.80
2013,08,21,02,55,12.70
2013,08,21,02,56,12.70
2013,08,21,02,57,12.70
2013,08,21,02,58,12.70
2013,08,21,02,59,12.70
2013,08,21,03,00,12.70
2013,08,21,03,01,12.70
2013,08,21,03,02,12.70
2013,08,21,03,03,12.70
2013,08,21,03,04,12.70
2013,08,21,03,05,12.70
2013,08,21,03,06,12.70
2013,08,21,03,07,12.70
2013,08,21,03,08,12.70
2013,08,21,03,09,12.70
2013,08,21,03,10,12.60
2013,08,21,03,11,12.60
2013,08,21,03,12,12.60
2013,08,21,03,13,12.60
2013,08,21,03,14,12.60
2013,08,21,03,15,12.60
2013,08,21,03,16,12.60
2013,08,21,03,17,12.60
2013,08,21,03,18,12.60
2013,08,21,03,19,12.60
2013,08,21,03,20,12.60
2013,08,21,03,21,12.60
2013,08,21,03,22,12.60
2013,08,21,03,23,12.60
2013,08,21,03,24,12.60
2013,08,21,03,25,12.50
2013,08,21,03,26,12.50
2013,08,21,03,27,12.50
2013,08,21,03,28,12.50
2013,08,21,03,29,12.40
2013,08,21,03,30,12.40
2013,08,21,03,31,12.40
2013,08,21,03,32,12.40
2013,08,21,03,33,12.40
2013,08,21,03,34,12.40
2013,08,21,03,35,12.40
2013,08,21,03,36,12.40
2013,08,21,03,37,12.40
2013,08,21,03,38,12.40
2013,08,21,03,39,12.30
2013,08,21,03,40,12.30
2013,08,21,03,41,12.30
2013,08,21,03,42,12.30
2013,08,21,03,43,12.30
2013,08,21,03,44,12.30
2013,08,21,03,45,12.30
2013,08,21,03,46,12.20
2013,08,21,03,47,12.20
2013,08,21,03,48,12.20
2013,08,21,03,49,12.20
2013,08,21,03,50,12.20
2013,08,21,03,51,12.20
2013,08,21,03,52,12.20
2013,08,21,03,53,12.20
2013,08,21,03,54,12.20
2013,08,21,03,55,12.10
2013,08,21,03,56,12.10
2013,08,21,03,57,12.10
2013,08,21,03,58,12.10
2013,08,21,03,59,12.10
2013,08,21,04,00,12.10
2013,08,21,04,01,12.10
2013,08,21,04,02,12.10
2013,08,21,04,03,12.10
2013,08,21,04,04,12.00
2013,08,21,04,05,12.00
2013,08,21,04,06,12.00
2013,08,21,04,07,12.00
2013,08,21,04,08,12.00
2013,08,21,04,09,12.00
2013,08,21,04,10,11.90
2013,08,21,04,11,11.90
2013,08,21,04,12,11.90
2013,08,21,04,13,11.90
2013,08,21,04,14,11.90
2013,08,21,04,15,11.90
2013,08,21,04,16,11.90
2013,08,21,04,17,11.90
2013,08,21,04,18,11.90
2013,08,21,04,19,11.90
2013,08,21,04,20,11.80
2013,08,21,04,21,11.90
2013,08,21,04,22,11.90
2013,08,21,04,23,11.90
2013,08,21,04,24,11.80
2013,08,21,04,25,11.80
2013,08,21,04,26,11.80
2013,08,21,04,27,11.80
2013,08,21,04,28,11.80
2013,08,21,04,29,11.80
2013,08,21,04,30,11.80
2013,08,21,04,31,11.80
2013,08,21,04,32,11.80
2013,08,21,04,33,11.80
2013,08,21,04,34,11.80
2013,08,21,04,35,11.80
2013,08,21,04,36,11.70
2013,08,21,04,37,11.70
2013,08,21,04,38,11.70
2013,08,21,04,39,11.70
2013,08,21,04,40,11.70
2013,08,21,04,41,11.60
2013,08,21,04,42,11.60
2013,08,21,04,43,11.60
2013,08,21,04,44,11.60
2013,08,21,04,45,11.60
2013,08,21,04,46,11.60
2013,08,21,04,47,11.60
2013,08,21,04,48,11.60
2013,08,21,04,49,11.60
2013,08,21,04,50,11.60
2013,08,21,04,51,11.60
2013,08,21,04,52,11.50
2013,08,21,04,53,11.50
2013,08,21,04,54,11.50
2013,08,21,04,55,11.50
2013,08,21,04,56,11.50
2013,08,21,04,57,11.50
2013,08,21,04,58,11.50
2013,08,21,04,59,11.50
2013,08,21,05,00,11.50
2013,08,21,05,01,11.50
2013,08,21,05,02,11.50
2013,08,21,05,03,11.40
2013,08,21,05,04,11.40
2013,08,21,05,05,11.40
2013,08,21,05,06,11.40
2013,08,21,05,07,11.40
2013,08,21,05,08,11.40
2013,08,21,05,09,11.40
2013,08,21,05,10,11.40
2013,08,21,05,11,11.40
2013,08,21,05,12,11.40
2013,08,21,05,13,11.40
2013,08,21,05,14,11.40
2013,08,21,05,15,11.40
2013,08,21,05,16,11.50
2013,08,21,05,17,11.50
2013,08,21,05,18,11.50
2013,08,21,05,19,11.60
2013,08,21,05,20,11.50
2013,08,21,05,21,11.50
2013,08,21,05,22,11.50
2013,08,21,05,23,11.50
2013,08,21,05,24,11.50
2013,08,21,05,25,11.50
2013,08,21,05,26,11.40
2013,08,21,05,27,11.40
2013,08,21,05,28,11.40
2013,08,21,05,29,11.40
2013,08,21,05,30,11.40
2013,08,21,05,31,11.40
2013,08,21,05,32,11.30
2013,08,21,05,33,11.30
2013,08,21,05,34,11.30
2013,08,21,05,35,11.20
2013,08,21,05,36,11.20
2013,08,21,05,37,11.20
2013,08,21,05,38,11.20
2013,08,21,05,39,11.10
2013,08,21,05,40,11.10
2013,08,21,05,41,11.10
2013,08,21,05,42,11.10
2013,08,21,05,43,11.10
2013,08,21,05,44,11.00
2013,08,21,05,45,11.00
2013,08,21,05,46,11.00
2013,08,21,05,47,10.90
2013,08,21,05,48,10.90
2013,08,21,05,49,10.90
2013,08,21,05,50,10.90
2013,08,21,05,51,10.90
2013,08,21,05,52,10.90
2013,08,21,05,53,10.90
2013,08,21,05,54,10.90
2013,08,21,05,55,10.80
2013,08,21,05,56,10.80
2013,08,21,05,57,10.80
2013,08,21,05,58,10.80
2013,08,21,05,59,10.80
2013,08,21,06,00,10.80
2013,08,21,06,01,10.80
2013,08,21,06,02,10.80
2013,08,21,06,03,10.80
2013,08,21,06,04,10.80
2013,08,21,06,05,10.80
2013,08,21,06,06,10.80
2013,08,21,06,07,10.80
2013,08,21,06,08,10.70
2013,08,21,06,09,10.70
2013,08,21,06,10,10.70
2013,08,21,06,11,10.70
2013,08,21,06,12,10.70
2013,08,21,06,13,10.70
2013,08,21,06,14,10.60
2013,08,21,06,15,10.60
2013,08,21,06,16,10.60
2013,08,21,06,17,10.60
2013,08,21,06,18,10.60
2013,08,21,06,19,10.60
2013,08,21,06,20,10.50
2013,08,21,06,21,10.50
2013,08,21,06,22,10.50
2013,08,21,06,23,10.50
2013,08,21,06,24,10.50
2013,08,21,06,25,10.60
2013,08,21,06,26,10.50
2013,08,21,06,27,10.50
2013,08,21,06,28,10.60
2013,08,21,06,29,10.60
2013,08,21,06,30,10.60
2013,08,21,06,31,10.60
2013,08,21,06,32,10.60
2013,08,21,06,33,10.60
2013,08,21,06,34,10.60
2013,08,21,06,35,10.60
2013,08,21,06,36,10.60
2013,08,21,06,37,10.60
2013,08,21,06,38,10.60
2013,08,21,06,39,10.60
2013,08,21,06,40,10.60
2013,08,21,06,41,10.60
2013,08,21,06,42,10.70
2013,08,21,06,43,10.70
2013,08,21,06,44,10.70
2013,08,21,06,45,10.70
2013,08,21,06,46,10.70
2013,08,21,06,47,10.70
2013,08,21,06,48,10.70
2013,08,21,06,49,10.70
2013,08,21,06,50,10.70
2013,08,21,06,51,10.70
2013,08,21,06,52,10.70
2013,08,21,06,53,10.70
2013,08,21,06,54,10.70
2013,08,21,06,55,10.70
2013,08,21,06,56,10.70
2013,08,21,06,57,10.70
2013,08,21,06,58,10.70
2013,08,21,06,59,10.80
2013,08,21,07,00,10.80
2013,08,21,07,01,10.80
2013,08,21,07,02,10.80
2013,08,21,07,03,10.80
2013,08,21,07,04,10.80
2013,08,21,07,05,10.80
2013,08,21,07,06,10.80
2013,08,21,07,07,10.80
2013,08,21,07,08,10.80
2013,08,21,07,09,10.80
2013,08,21,07,10,10.90
2013,08,21,07,11,10.90
2013,08,21,07,12,10.90
2013,08,21,07,13,10.90
2013,08,21,07,14,10.90
2013,08,21,07,15,11.00
2013,08,21,07,16,11.00
2013,08,21,07,17,11.00
2013,08,21,07,18,11.00
2013,08,21,07,19,11.10
2013,08,21,07,20,11.10
2013,08,21,07,21,11.10
2013,08,21,07,22,11.20
2013,08,21,07,23,11.20
2013,08,21,07,24,11.20
2013,08,21,07,25,11.20
2013,08,21,07,26,11.30
2013,08,21,07,27,11.30
2013,08,21,07,28,11.30
2013,08,21,07,29,11.30
2013,08,21,07,30,11.30
2013,08,21,07,31,11.30
2013,08,21,07,32,11.30
2013,08,21,07,33,11.40
2013,08,21,07,34,11.40
2013,08,21,07,35,11.40
2013,08,21,07,36,11.40
2013,08,21,07,37,11.50
2013,08,21,07,38,11.50
2013,08,21,07,39,11.50
2013,08,21,07,40,11.60
2013,08,21,07,41,11.60
2013,08,21,07,42,11.60
2013,08,21,07,43,11.60
2013,08,21,07,44,11.70
2013,08,21,07,45,11.70
2013,08,21,07,46,11.70
2013,08,21,07,47,11.80
2013,08,21,07,48,11.80
2013,08,21,07,49,11.80
2013,08,21,07,50,11.80
2013,08,21,07,51,11.90
2013,08,21,07,52,11.90
2013,08,21,07,53,11.90
2013,08,21,07,54,12.00
2013,08,21,07,55,12.00
2013,08,21,07,56,12.00
2013,08,21,07,57,12.10
2013,08,21,07,58,12.10
2013,08,21,07,59,12.10
2013,08,21,08,00,12.20
2013,08,21,08,01,12.20
2013,08,21,08,02,12.20
2013,08,21,08,03,12.30
2013,08,21,08,04,12.30
2013,08,21,08,05,12.30
2013,08,21,08,06,12.40
2013,08,21,08,07,12.40
2013,08,21,08,08,12.40
2013,08,21,08,09,12.50
2013,08,21,08,10,12.50
2013,08,21,08,11,12.60
2013,08,21,08,12,12.60
2013,08,21,08,13,12.60
2013,08,21,08,14,12.70
2013,08,21,08,15,12.70
2013,08,21,08,16,12.70
2013,08,21,08,17,12.80
2013,08,21,08,18,12.80
2013,08,21,08,19,12.90
2013,08,21,08,20,12.90
2013,08,21,08,21,13.00
2013,08,21,08,22,13.00
2013,08,21,08,23,13.10
2013,08,21,08,24,13.10
2013,08,21,08,25,13.10
2013,08,21,08,26,13.20
2013,08,21,08,27,13.20
2013,08,21,08,28,13.20
2013,08,21,08,29,13.30
2013,08,21,08,30,13.30
2013,08,21,08,31,13.30
2013,08,21,08,32,13.40
2013,08,21,08,33,13.50
2013,08,21,08,34,13.50
2013,08,21,08,35,13.50
2013,08,21,08,36,13.60
2013,08,21,08,37,13.60
2013,08,21,08,38,13.60
2013,08,21,08,39,13.60
2013,08,21,08,40,13.70
2013,08,21,08,41,13.70
2013,08,21,08,42,13.70
2013,08,21,08,43,13.70
2013,08,21,08,44,13.70
2013,08,21,08,45,13.80
2013,08,21,08,46,13.80
2013,08,21,08,47,13.80
2013,08,21,08,48,13.90
2013,08,21,08,49,14.00
2013,08,21,08,50,14.00
2013,08,21,08,51,14.10
2013,08,21,08,52,14.20
2013,08,21,08,53,14.30
2013,08,21,08,54,14.30
2013,08,21,08,55,14.40
2013,08,21,08,56,14.50
2013,08,21,08,57,14.60
2013,08,21,08,58,14.70
2013,08,21,08,59,14.70
2013,08,21,09,00,14.80
2013,08,21,09,01,14.80
2013,08,21,09,02,14.90
2013,08,21,09,03,15.00
2013,08,21,09,04,15.00
2013,08,21,09,05,15.00
2013,08,21,09,06,15.00
2013,08,21,09,07,15.10
2013,08,21,09,08,15.20
2013,08,21,09,09,15.30
2013,08,21,09,10,15.50
2013,08,21,09,11,15.50
2013,08,21,09,12,15.60
2013,08,21,09,13,15.60
2013,08,21,09,14,15.70
2013,08,21,09,15,15.80
2013,08,21,09,16,15.90
2013,08,21,09,17,16.10
2013,08,21,09,18,16.20
2013,08,21,09,19,16.30
2013,08,21,09,20,16.30
2013,08,21,09,21,16.40
2013,08,21,09,22,16.50
2013,08,21,09,23,16.60
2013,08,21,09,24,16.70
2013,08,21,09,25,16.80
2013,08,21,09,26,16.90
2013,08,21,09,27,17.00
2013,08,21,09,28,17.10
2013,08,21,09,29,17.20
2013,08,21,09,30,17.20
2013,08,21,09,31,17.30
2013,08,21,09,32,17.40
2013,08,21,09,33,17.50
2013,08,21,09,34,17.60
2013,08,21,09,35,17.70
2013,08,21,09,36,17.80
2013,08,21,09,37,17.90
2013,08,21,09,38,18.00
2013,08,21,09,39,18.10
2013,08,21,09,40,18.20
2013,08,21,09,41,18.30
2013,08,21,09,42,18.30
2013,08,21,09,43,18.30
2013,08,21,09,44,18.40
2013,08,21,09,45,18.40
2013,08,21,09,46,18.40
2013,08,21,09,47,18.50
2013,08,21,09,48,18.50
2013,08,21,09,49,18.50
2013,08,21,09,50,18.60
2013,08,21,09,51,18.60
2013,08,21,09,52,18.60
2013,08,21,09,53,18.70
2013,08,21,09,54,18.70
2013,08,21,09,55,18.70
2013,08,21,09,56,18.80
2013,08,21,09,57,18.80
2013,08,21,09,58,18.90
2013,08,21,09,59,19.00
2013,08,21,10,00,19.00
2013,08,21,10,01,19.10
2013,08,21,10,02,19.10
2013,08,21,10,03,19.10
2013,08,21,10,04,19.20
2013,08,21,10,05,19.20
2013,08,21,10,06,19.30
2013,08,21,10,07,19.30
2013,08,21,10,08,19.30
2013,08,21,10,09,19.40
2013,08,21,10,10,19.40
2013,08,21,10,11,19.50
2013,08,21,10,12,19.50
2013,08,21,10,13,19.50
2013,08,21,10,14,19.50
2013,08,21,10,15,19.60
2013,08,21,10,16,19.60
2013,08,21,10,17,19.60
2013,08,21,10,18,19.70
2013,08,21,10,19,19.70
2013,08,21,10,20,19.70
2013,08,21,10,21,19.80
2013,08,21,10,22,19.80
2013,08,21,10,23,19.90
2013,08,21,10,24,19.90
2013,08,21,10,25,20.00
2013,08,21,10,26,20.00
2013,08,21,10,27,20.10
2013,08,21,10,28,20.10
2013,08,21,10,29,20.10
2013,08,21,10,30,20.20
2013,08,21,10,31,20.20
2013,08,21,10,32,20.20
2013,08,21,10,33,20.30
2013,08,21,10,34,20.40
2013,08,21,10,35,20.40
2013,08,21,10,36,20.40
2013,08,21,10,37,20.40
2013,08,21,10,38,20.40
2013,08,21,10,39,20.50
2013,08,21,10,40,20.50
2013,08,21,10,41,20.60
2013,08,21,10,42,20.70
2013,08,21,10,43,20.80
2013,08,21,10,44,20.90
2013,08,21,10,45,20.90
2013,08,21,10,46,21.00
2013,08,21,10,47,21.10
2013,08,21,10,48,21.20
2013,08,21,10,49,21.30
2013,08,21,10,50,21.40
2013,08,21,10,51,21.50
2013,08,21,10,52,21.60
2013,08,21,10,53,21.70
2013,08,21,10,54,21.70
2013,08,21,10,55,21.70
2013,08,21,10,56,21.70
2013,08,21,10,57,21.70
2013,08,21,10,58,21.70
2013,08,21,10,59,21.70
2013,08,21,11,00,21.60
2013,08,21,11,01,21.60
2013,08,21,11,02,21.60
2013,08,21,11,03,21.50
2013,08,21,11,04,21.50
2013,08,21,11,05,21.40
2013,08,21,11,06,21.40
2013,08,21,11,07,21.40
2013,08,21,11,08,21.40
2013,08,21,11,09,21.50
2013,08,21,11,10,21.50
2013,08,21,11,11,21.60
2013,08,21,11,12,21.70
2013,08,21,11,13,21.80
2013,08,21,11,14,21.90
2013,08,21,11,15,22.00
2013,08,21,11,16,22.20
2013,08,21,11,17,22.30
2013,08,21,11,18,22.40
2013,08,21,11,19,22.50
2013,08,21,11,20,22.60
2013,08,21,11,21,22.60
2013,08,21,11,22,22.60
2013,08,21,11,23,22.70
2013,08,21,11,24,22.70
2013,08,21,11,25,22.70
2013,08,21,11,26,22.70
2013,08,21,11,27,22.70
2013,08,21,11,28,22.80
2013,08,21,11,29,22.80
2013,08,21,11,30,22.90
2013,08,21,11,31,22.90
2013,08,21,11,32,23.00
2013,08,21,11,33,23.00
2013,08,21,11,34,23.10
2013,08,21,11,35,23.10
2013,08,21,11,36,23.10
2013,08,21,11,37,23.20
2013,08,21,11,38,23.20
2013,08,21,11,39,23.30
2013,08,21,11,40,23.40
2013,08,21,11,41,23.40
2013,08,21,11,42,23.40
2013,08,21,11,43,23.40
2013,08,21,11,44,23.40
2013,08,21,11,45,23.40
2013,08,21,11,46,23.40
2013,08,21,11,47,23.40
2013,08,21,11,48,23.40
2013,08,21,11,49,23.40
2013,08,21,11,50,23.40
2013,08,21,11,51,23.40
2013,08,21,11,52,23.30
2013,08,21,11,53,23.30
2013,08,21,11,54,23.40
2013,08,21,11,55,23.40
2013,08,21,11,56,23.50
2013,08,21,11,57,23.60
2013,08,21,11,58,23.70
2013,08,21,11,59,23.70
2013,08,21,12,00,23.80
2013,08,21,12,01,23.90
2013,08,21,12,02,24.00
2013,08,21,12,03,24.10
2013,08,21,12,04,24.10
2013,08,21,12,05,24.20
2013,08,21,12,06,24.20
2013,08,21,12,07,24.30
2013,08,21,12,08,24.30
2013,08,21,12,09,24.30
2013,08,21,12,10,24.20
2013,08,21,12,11,24.10
2013,08,21,12,12,24.10
2013,08,21,12,13,24.00
2013,08,21,12,14,23.90
2013,08,21,12,15,23.80
2013,08,21,12,16,23.60
2013,08,21,12,17,23.50
2013,08,21,12,18,23.40
2013,08,21,12,19,23.40
2013,08,21,12,20,23.50
2013,08,21,12,21,23.50
2013,08,21,12,22,23.60
2013,08,21,12,23,23.70
2013,08,21,12,24,23.80
2013,08,21,12,25,23.90
2013,08,21,12,26,24.00
2013,08,21,12,27,24.10
2013,08,21,12,28,24.10
2013,08,21,12,29,24.10
2013,08,21,12,30,24.10
2013,08,21,12,31,24.10
2013,08,21,12,32,24.20
2013,08,21,12,33,24.20
2013,08,21,12,34,24.30
2013,08,21,12,35,24.30
2013,08,21,12,36,24.40
2013,08,21,12,37,24.40
2013,08,21,12,38,24.50
2013,08,21,12,39,24.50
2013,08,21,12,40,24.60
2013,08,21,12,41,24.70
2013,08,21,12,42,24.80
2013,08,21,12,43,24.90
2013,08,21,12,44,25.00
2013,08,21,12,45,25.10
2013,08,21,12,46,25.10
2013,08,21,12,47,25.20
2013,08,21,12,48,25.20
2013,08,21,12,49,25.20
2013,08,21,12,50,25.20
2013,08,21,12,51,25.20
2013,08,21,12,52,25.20
2013,08,21,12,53,25.30
2013,08,21,12,54,25.30
2013,08,21,12,55,25.40
2013,08,21,12,56,25.40
2013,08,21,12,57,25.50
2013,08,21,12,58,25.60
2013,08,21,12,59,25.70
2013,08,21,13,00,25.80
2013,08,21,13,01,25.90
2013,08,21,13,02,25.90
2013,08,21,13,03,25.90
2013,08,21,13,04,26.00
2013,08,21,13,05,26.10
2013,08,21,13,06,26.20
2013,08,21,13,07,26.20
2013,08,21,13,08,26.30
2013,08,21,13,09,26.40
2013,08,21,13,10,26.40
2013,08,21,13,11,26.50
2013,08,21,13,12,26.50
2013,08,21,13,13,26.50
2013,08,21,13,14,26.50
2013,08,21,13,15,26.60
2013,08,21,13,16,26.60
2013,08,21,13,17,26.60
2013,08,21,13,18,26.60
2013,08,21,13,19,26.70
2013,08,21,13,20,26.70
2013,08,21,13,21,26.70
2013,08,21,13,22,26.70
2013,08,21,13,23,26.70
2013,08,21,13,24,26.70
2013,08,21,13,25,26.60
2013,08,21,13,26,26.60
2013,08,21,13,27,26.60
2013,08,21,13,28,26.50
2013,08,21,13,29,26.60
2013,08,21,13,30,26.60
2013,08,21,13,31,26.60
2013,08,21,13,32,26.60
2013,08,21,13,33,26.60
2013,08,21,13,34,26.70
2013,08,21,13,35,26.70
2013,08,21,13,36,26.80
2013,08,21,13,37,26.80
2013,08,21,13,38,26.80
2013,08,21,13,39,26.80
2013,08,21,13,40,26.80
2013,08,21,13,41,26.80
2013,08,21,13,42,26.80
2013,08,21,13,43,26.80
2013,08,21,13,44,26.80
2013,08,21,13,45,26.80
2013,08,21,13,46,26.90
2013,08,21,13,47,26.90
2013,08,21,13,48,26.90
2013,08,21,13,49,27.00
2013,08,21,13,50,27.00
2013,08,21,13,51,27.00
2013,08,21,13,52,27.00
2013,08,21,13,53,27.00
2013,08,21,13,54,27.10
2013,08,21,13,55,27.10
2013,08,21,13,56,27.00
2013,08,21,13,57,27.00
2013,08,21,13,58,27.10
2013,08,21,13,59,27.10
2013,08,21,14,00,27.10
2013,08,21,14,01,27.20
2013,08,21,14,02,27.30
2013,08,21,14,03,27.30
2013,08,21,14,04,27.40
2013,08,21,14,05,27.40
2013,08,21,14,06,27.50
2013,08,21,14,07,27.60
2013,08,21,14,08,27.70
2013,08,21,14,09,27.70
2013,08,21,14,10,27.80
2013,08,21,14,11,27.80
2013,08,21,14,12,27.90
2013,08,21,14,13,27.90
2013,08,21,14,14,27.90
2013,08,21,14,15,27.90
2013,08,21,14,16,27.90
2013,08,21,14,17,28.00
2013,08,21,14,18,28.00
2013,08,21,14,19,28.00
2013,08,21,14,20,28.00
2013,08,21,14,21,28.10
2013,08,21,14,22,28.00
2013,08,21,14,23,28.00
2013,08,21,14,24,28.00
2013,08,21,14,25,28.00
2013,08,21,14,26,28.00
2013,08,21,14,27,28.00
2013,08,21,14,28,28.00
2013,08,21,14,29,28.10
2013,08,21,14,30,28.10
2013,08,21,14,31,28.10
2013,08,21,14,32,28.00
2013,08,21,14,33,27.90
2013,08,21,14,34,27.70
2013,08,21,14,35,27.60
2013,08,21,14,36,27.50
2013,08,21,14,37,27.40
2013,08,21,14,38,27.40
2013,08,21,14,39,27.30
2013,08,21,14,40,27.30
2013,08,21,14,41,27.30
2013,08,21,14,42,27.30
2013,08,21,14,43,27.20
2013,08,21,14,44,27.20
2013,08,21,14,45,27.20
2013,08,21,14,46,27.30
2013,08,21,14,47,27.30
2013,08,21,14,48,27.40
2013,08,21,14,49,27.50
2013,08,21,14,50,27.60
2013,08,21,14,51,27.70
2013,08,21,14,52,27.80
2013,08,21,14,53,27.90
2013,08,21,14,54,28.00
2013,08,21,14,55,28.10
2013,08,21,14,56,28.10
2013,08,21,14,57,28.20
2013,08,21,14,58,28.30
2013,08,21,14,59,28.40
2013,08,21,15,00,28.40
2013,08,21,15,01,28.40
2013,08,21,15,02,28.30
2013,08,21,15,03,28.20
2013,08,21,15,04,28.20
2013,08,21,15,05,28.20
2013,08,21,15,06,28.30
2013,08,21,15,07,28.40
2013,08,21,15,08,28.50
2013,08,21,15,09,28.60
2013,08,21,15,10,28.60
2013,08,21,15,11,28.70
2013,08,21,15,12,28.70
2013,08,21,15,13,28.50
2013,08,21,15,14,28.30
2013,08,21,15,15,28.20
2013,08,21,15,16,28.10
2013,08,21,15,17,28.00
2013,08,21,15,18,28.00
2013,08,21,15,19,27.90
2013,08,21,15,20,28.00
2013,08,21,15,21,28.00
2013,08,21,15,22,28.10
2013,08,21,15,23,28.10
2013,08,21,15,24,28.20
2013,08,21,15,25,28.30
2013,08,21,15,26,28.30
2013,08,21,15,27,28.40
2013,08,21,15,28,28.40
2013,08,21,15,29,28.30
2013,08,21,15,30,28.30
2013,08,21,15,31,28.30
2013,08,21,15,32,28.40
2013,08,21,15,33,28.40
2013,08,21,15,34,28.40
2013,08,21,15,35,28.50
2013,08,21,15,36,28.60
2013,08,21,15,37,28.70
2013,08,21,15,38,28.70
2013,08,21,15,39,28.70
2013,08,21,15,40,28.70
2013,08,21,15,41,28.70
2013,08,21,15,42,28.70
2013,08,21,15,43,28.80
2013,08,21,15,44,28.90
2013,08,21,15,45,29.10
2013,08,21,15,46,29.20
2013,08,21,15,47,29.30
2013,08,21,15,48,29.50
2013,08,21,15,49,29.50
2013,08,21,15,50,29.60
2013,08,21,15,51,29.60
2013,08,21,15,52,29.60
2013,08,21,15,53,29.60
2013,08,21,15,54,29.60
2013,08,21,15,55,29.60
2013,08,21,15,56,29.70
2013,08,21,15,57,29.70
2013,08,21,15,58,29.70
2013,08,21,15,59,29.70
2013,08,21,16,00,29.70
2013,08,21,16,01,29.50
2013,08,21,16,02,29.30
2013,08,21,16,03,29.20
2013,08,21,16,04,29.20
2013,08,21,16,05,29.20
2013,08,21,16,06,29.10
2013,08,21,16,07,29.10
2013,08,21,16,08,29.10
2013,08,21,16,09,29.10
2013,08,21,16,10,29.10
2013,08,21,16,11,29.10
2013,08,21,16,12,29.00
2013,08,21,16,13,28.90
2013,08,21,16,14,28.80
2013,08,21,16,15,28.80
2013,08,21,16,16,28.80
2013,08,21,16,17,28.80
2013,08,21,16,18,28.80
2013,08,21,16,19,28.80
2013,08,21,16,20,28.80
2013,08,21,16,21,28.80
2013,08,21,16,22,28.80
2013,08,21,16,23,28.80
2013,08,21,16,24,28.80
2013,08,21,16,25,28.80
2013,08,21,16,26,28.90
2013,08,21,16,27,28.90
2013,08,21,16,28,28.90
2013,08,21,16,29,28.90
2013,08,21,16,30,28.80
2013,08,21,16,31,28.80
2013,08,21,16,32,28.90
2013,08,21,16,33,29.00
2013,08,21,16,34,29.00
2013,08,21,16,35,29.10
2013,08,21,16,36,29.20
2013,08,21,16,37,29.30
2013,08,21,16,38,29.30
2013,08,21,16,39,29.40
2013,08,21,16,40,29.40
2013,08,21,16,41,29.50
2013,08,21,16,42,29.50
2013,08,21,16,43,29.60
2013,08,21,16,44,29.60
2013,08,21,16,45,29.60
2013,08,21,16,46,29.70
2013,08,21,16,47,29.70
2013,08,21,16,48,29.70
2013,08,21,16,49,29.70
2013,08,21,16,50,29.70
2013,08,21,16,51,29.70
2013,08,21,16,52,29.70
2013,08,21,16,53,29.60
2013,08,21,16,54,29.60
2013,08,21,16,55,29.60
2013,08,21,16,56,29.60
2013,08,21,16,57,29.60
2013,08,21,16,58,29.50
2013,08,21,16,59,29.50
2013,08,21,17,00,29.40
2013,08,21,17,01,29.30
2013,08,21,17,02,29.20
2013,08,21,17,03,29.10
2013,08,21,17,04,29.10
2013,08,21,17,05,29.00
2013,08,21,17,06,28.90
2013,08,21,17,07,28.80
2013,08,21,17,08,28.80
2013,08,21,17,09,28.80
2013,08,21,17,10,28.80
2013,08,21,17,11,28.80
2013,08,21,17,12,28.80
2013,08,21,17,13,28.80
2013,08,21,17,14,28.80
2013,08,21,17,15,28.80
2013,08,21,17,16,28.80
2013,08,21,17,17,28.80
2013,08,21,17,18,28.80
2013,08,21,17,19,28.90